TimeEDT,TemperatureF,Dew PointF,Humidity,Sea Level PressureIn,VisibilityMPH,Wind Direction,Wind SpeedMPH,Gust SpeedMPH,PrecipitationIn,Events,Conditions,WindDirDegrees,DateUTC
12:13 AM,57.7,56.3,95,29.36,5.0,WSW,13.8,18.4,N/A,Rain,Rain,250,2012-10-15 04:13:00
12:33 AM,57.2,56.3,97,29.36,7.0,WSW,16.1,20.7,N/A,,Drizzle,240,2012-10-15 04:33:00
1:13 AM,51.4,48.9,91,29.40,10.0,West,21.9,34.5,N/A,,Overcast,270,2012-10-15 05:13:00
1:34 AM,50.9,47.8,89,29.42,10.0,West,19.6,31.1,N/A,,Overcast,270,2012-10-15 05:34:00
1:54 AM,50.2,46.6,87,29.43,10.0,West,19.6,28.8,N/A,,Overcast,260,2012-10-15 05:54:00
2:13 AM,50.0,45.9,86,29.44,10.0,West,19.6,28.8,N/A,,Overcast,260,2012-10-15 06:13:00
2:34 AM,49.6,45.3,85,29.45,10.0,West,19.6,31.1,N/A,,Overcast,270,2012-10-15 06:34:00
2:54 AM,49.5,44.8,84,29.47,10.0,West,23.0,32.2,N/A,,Overcast,260,2012-10-15 06:54:00
3:13 AM,49.1,43.9,82,29.46,10.0,West,17.3,32.2,N/A,,Overcast,280,2012-10-15 07:13:00
3:34 AM,48.9,43.3,81,29.48,10.0,West,20.7,29.9,N/A,,Overcast,270,2012-10-15 07:34:00
3:54 AM,48.7,43.3,82,29.49,10.0,West,21.9,32.2,N/A,,Overcast,270,2012-10-15 07:54:00
4:13 AM,48.6,43.0,81,29.49,10.0,West,21.9,29.9,N/A,,Overcast,270,2012-10-15 08:13:00
4:34 AM,48.4,42.8,81,29.50,10.0,West,18.4,31.1,N/A,,Overcast,270,2012-10-15 08:34:00
4:53 AM,48.4,42.1,79,29.51,10.0,West,19.6,29.9,N/A,,Overcast,270,2012-10-15 08:53:00
5:13 AM,48.2,42.4,80,29.52,10.0,West,19.6,31.1,N/A,,Overcast,260,2012-10-15 09:13:00
5:53 AM,47.7,42.1,81,29.54,10.0,West,20.7,29.9,N/A,,Overcast,260,2012-10-15 09:53:00
6:13 AM,47.7,41.4,79,29.55,10.0,West,19.6,28.8,N/A,,Overcast,270,2012-10-15 10:13:00
6:53 AM,47.5,42.4,83,29.57,10.0,West,13.8,26.5,N/A,,Overcast,270,2012-10-15 10:53:00
7:14 AM,47.3,42.4,83,29.58,10.0,West,15.0,23.0,N/A,,Overcast,260,2012-10-15 11:14:00
7:34 AM,47.3,41.9,82,29.59,10.0,West,18.4,31.1,N/A,,Overcast,260,2012-10-15 11:34:00
7:53 AM,47.3,41.5,80,29.60,10.0,West,17.3,25.3,N/A,,Overcast,270,2012-10-15 11:53:00
8:14 AM,46.9,41.4,81,29.61,10.0,West,16.1,24.2,N/A,,Overcast,270,2012-10-15 12:14:00
8:33 AM,46.9,41.2,80,29.62,10.0,West,16.1,29.9,N/A,,Overcast,270,2012-10-15 12:33:00
8:53 AM,46.6,41.9,84,29.63,10.0,West,15.0,24.2,N/A,Rain,Rain,280,2012-10-15 12:53:00
9:14 AM,46.2,42.6,87,29.64,10.0,West,17.3,24.2,N/A,Rain,Light Rain,270,2012-10-15 13:14:00
9:34 AM,46.2,43.3,90,29.65,10.0,West,11.5,16.1,N/A,Rain,Light Rain,260,2012-10-15 13:34:00
9:53 AM,46.4,43.7,90,29.65,10.0,West,15.0,20.7,N/A,,Drizzle,270,2012-10-15 13:53:00
10:14 AM,46.4,43.7,90,29.66,10.0,West,16.1,23.0,N/A,,Drizzle,270,2012-10-15 14:14:00
10:34 AM,46.4,43.7,90,29.67,10.0,West,15.0,19.6,N/A,Rain,Light Rain,270,2012-10-15 14:34:00
10:53 AM,46.4,43.7,90,29.67,10.0,West,13.8,21.9,N/A,,Drizzle,280,2012-10-15 14:53:00
11:33 AM,45.5,42.3,88,29.69,10.0,WNW,17.3,28.8,N/A,Rain,Rain,300,2012-10-15 15:33:00
11:54 AM,45.7,42.8,90,29.70,10.0,WNW,17.3,21.9,N/A,Rain,Light Rain,290,2012-10-15 15:54:00
12:14 PM,45.7,42.1,87,29.71,10.0,WNW,16.1,27.6,N/A,Rain,Light Rain,300,2012-10-15 16:14:00
12:33 PM,45.5,41.9,87,29.72,10.0,WNW,15.0,26.5,N/A,Rain,Light Rain,300,2012-10-15 16:33:00
12:54 PM,45.5,41.9,87,29.72,10.0,NW,15.0,21.9,N/A,Rain,Light Rain,310,2012-10-15 16:54:00
1:14 PM,45.5,42.4,89,29.73,10.0,WNW,15.0,20.7,N/A,Rain,Light Rain,300,2012-10-15 17:14:00
1:33 PM,45.7,42.6,89,29.74,10.0,WNW,15.0,23.0,N/A,,Drizzle,290,2012-10-15 17:33:00
1:54 PM,45.5,42.6,90,29.75,10.0,WNW,17.3,23.0,N/A,Rain,Rain,290,2012-10-15 17:54:00
2:14 PM,45.3,42.4,90,29.75,10.0,WNW,13.8,24.2,N/A,,Drizzle,290,2012-10-15 18:14:00
2:33 PM,45.5,43.0,91,29.76,10.0,WNW,10.4,-,N/A,Rain,Light Rain,300,2012-10-15 18:33:00
2:54 PM,45.9,43.5,92,29.76,10.0,WNW,15.0,18.4,N/A,Rain,Light Rain,300,2012-10-15 18:54:00
3:14 PM,46.0,43.7,92,29.77,10.0,WNW,15.0,23.0,N/A,Rain,Light Rain,300,2012-10-15 19:14:00
3:33 PM,46.0,43.7,92,29.77,10.0,WNW,11.5,18.4,N/A,Rain,Light Rain,300,2012-10-15 19:33:00
3:54 PM,46.0,43.7,92,29.78,10.0,WNW,9.2,16.1,N/A,Rain,Rain,300,2012-10-15 19:54:00
4:14 PM,45.7,43.0,90,29.78,10.0,WNW,15.0,19.6,N/A,Rain,Light Rain,300,2012-10-15 20:14:00
4:34 PM,45.9,42.8,89,29.80,10.0,WNW,10.4,-,N/A,,Overcast,300,2012-10-15 20:34:00
4:54 PM,45.9,42.6,88,29.81,10.0,WNW,12.7,18.4,N/A,,Overcast,300,2012-10-15 20:54:00
5:14 PM,46.0,42.3,87,29.82,10.0,WNW,11.5,-,N/A,,Overcast,300,2012-10-15 21:14:00
5:34 PM,45.7,41.9,87,29.82,10.0,WNW,8.1,16.1,N/A,,Overcast,290,2012-10-15 21:34:00
5:54 PM,45.7,41.9,87,29.83,10.0,WNW,9.2,-,N/A,,Overcast,300,2012-10-15 21:54:00
6:14 PM,45.5,41.2,85,29.83,10.0,WNW,8.1,-,N/A,,Overcast,300,2012-10-15 22:14:00
6:34 PM,45.5,41.0,84,29.83,10.0,WNW,8.1,-,N/A,,Overcast,290,2012-10-15 22:34:00
6:54 PM,45.5,41.0,84,29.84,10.0,WNW,8.1,-,N/A,,Overcast,290,2012-10-15 22:54:00
7:14 PM,45.5,40.5,83,29.84,10.0,WNW,8.1,-,N/A,,Overcast,300,2012-10-15 23:14:00
7:34 PM,45.5,40.3,82,29.85,10.0,WNW,9.2,-,N/A,,Overcast,300,2012-10-15 23:34:00
7:54 PM,45.3,40.1,82,29.86,10.0,WNW,8.1,-,N/A,,Overcast,300,2012-10-15 23:54:00
8:14 PM,45.1,38.7,78,29.87,10.0,WNW,9.2,-,N/A,,Overcast,300,2012-10-16 00:14:00
8:34 PM,44.8,37.9,77,29.87,10.0,NW,8.1,-,N/A,,Overcast,310,2012-10-16 00:34:00
8:54 PM,45.0,36.5,72,29.88,10.0,NW,10.4,20.7,N/A,,Overcast,320,2012-10-16 00:54:00
9:13 PM,44.6,36.7,74,29.88,10.0,NW,9.2,-,N/A,,Overcast,310,2012-10-16 01:13:00
9:34 PM,44.6,36.5,73,29.89,10.0,NW,6.9,-,N/A,,Overcast,310,2012-10-16 01:34:00
9:54 PM,44.6,36.5,73,29.89,10.0,NW,8.1,-,N/A,,Overcast,320,2012-10-16 01:54:00
10:13 PM,44.6,36.5,73,29.90,10.0,NNW,8.1,-,N/A,,Overcast,330,2012-10-16 02:13:00
10:34 PM,44.4,36.7,74,29.90,10.0,NNW,6.9,-,N/A,,Overcast,330,2012-10-16 02:34:00
10:54 PM,44.1,36.1,74,29.90,10.0,NW,6.9,-,N/A,,Overcast,320,2012-10-16 02:54:00
11:14 PM,43.7,34.7,71,29.90,10.0,NW,6.9,-,N/A,,Overcast,320,2012-10-16 03:14:00
11:34 PM,43.3,34.2,70,29.91,10.0,NW,8.1,-,N/A,,Overcast,320,2012-10-16 03:34:00
11:53 PM,43.2,34.7,72,29.91,10.0,NW,6.9,-,N/A,,Overcast,310,2012-10-16 03:53:00